カタログに戻る

STARLINK-3732

運用中通信VLEO
NORAD 52126·PAYLOAD·🇺🇸 United States

打ち上げ Mar 19, 2022 から Cape Canaveral Space Force Station

Loading…

次のパス (今後24時間)

TLE

最新Source: CelesTrak SupGP

元期: Sep 14, 2026, 13:33 UTC

1 52126C 22029AQ  26257.56506944  .00035250  00000+0  10086-2 0  2570
2 52126  53.1591 297.2705 0001391  69.0289 298.2457 15.35377546    16

AllMySatでSTARLINK-3732をリアルタイム追跡

Download on the App Store